Regional Weather Roundup
Issued by NWS

Home | Current Version | Previous Version | Graphics & Text | Print | Product List | Glossary On
Versions: 1 2 3 4 5 6 7 8 9 10 11 12 13 14 15 16 17 18 19 20 21 22 23 24 25 26 27 28 29 30 31 32 33 34 35 36 37 38 39 40 41 42 43 44 45 46 47 48 49 50
818
ASUS44 KJAN 240910
RWRMS

MISSISSIPPI HOURLY WEATHER ROUNDUP
NATIONAL WEATHER SERVICE JACKSON MS
400 AM CDT FRI OCT 24 2014

NOTE: "FAIR: INDICATES FEW OR NO CLOUDS BELOW 12,000 FEET WITH NO
SIGNIFICANT WEATHER AND/OR OBSTRUCTIONS TO VISIBILITY.

MSZ001>002-007>008-010>013-018>021-025>028-034>036-241000-
NORTHWEST MISSISSIPPI

CITY           SKY/WX    TMP DP  RH WIND       PRES   REMARKS
CLARKSDALE     MOCLDY    48  48 100 CALM      30.14S
CLEVELAND      FAIR      48  48  99 CALM      30.12S
GREENWOOD      MOCLDY    49  47  93 CALM      30.13S
GREENVILLE     PTCLDY    49  46  90 CALM      30.13S
GRENADA          N/A    N/A N/A N/A MISG        N/A
OLIVE BRANCH   CLEAR     45  45 100 CALM      30.14R
OXFORD         FAIR      48  46  93 W3        30.14S
TUNICA         SUNNY     45  43  93 N5        30.14S
$$

MSZ003>006-009-014>017-022>024-029>033-037>039-241000-
NORTHEAST MISSISSIPPI

CITY           SKY/WX    TMP DP  RH WIND       PRES   REMARKS
COLUMBUS AFB   CLOUDY    52  49  90 NW5       30.10F
CORINTH        FAIR      50  48  93 NW5       30.11S
GOLDN TRIANGLE CLOUDY    52  46  82 NW3       30.09S
STARKVILLE     FAIR      50  48  93 CALM      30.11R
TUPELO         MOCLDY    51  47  86 N5        30.11S
$$

MSZ040-058-241000-
CENTRAL MISSISSIPPI

CITY           SKY/WX    TMP DP  RH WIND       PRES   REMARKS
JACKSON INTL   CLEAR     45  44  97 CALM      30.10S
JACKSON HAWKNS CLEAR     48  45  89 NW5       30.11S
MERIDIAN KEY   CLOUDY    49  47  93 CALM      30.09S
MERIDIAN NAS   CLOUDY    49  47  93 CALM      30.09S
RAYMOND        FAIR      41  37  87 CALM      30.12R HAZE
VICKSBURG      PTCLDY    47  45  93 NW3       30.13S
$$

MSZ059>079-241000-
SOUTH MISSISSIPPI

CITY           SKY/WX    TMP DP  RH WIND       PRES   REMARKS
BROOKHAVEN     FAIR      46  46 100 CALM      30.12S FOG
COLUMBIA         N/A    N/A N/A N/A MISG        N/A
HATTIESBURG    CLEAR     48  46  93 CALM      30.09F
MCCOMB         CLEAR     53  48  83 CALM      30.09S
NATCHEZ        PTCLDY    46  45  93 CALM      30.12S
PINE BELT      CLEAR     48  45  87 CALM      30.09F
$$

MSZ080>082-241000-
COASTAL MISSISSIPPI

CITY           SKY/WX    TMP DP  RH WIND       PRES   REMARKS
BILOXI         MOCLDY    56  48  75 CALM      30.06S
PASCAGOULA     CLEAR     46  45  96 CALM      30.07R
GULFPORT       CLEAR     56  46  69 N5        30.06S
$$



USA.gov is the U.S. government's official web portal to all federal, state and local government web resources and services.